カタログに戻る

SL-16 DEB

運用中LEO
NORAD 23707·DEBRIS·🇷🇺 Russia

打ち上げ Oct 31, 1995 から Baikonur Cosmodrome

Loading…

次のパス (今後24時間)

TLE

最新Source: Space-Track

元期: Sep 14, 2026, 13:54 UTC

1 23707U 95058D   26257.57933051  .00000068  00000-0  10459-3 0  9997
2 23707  70.9957 318.3776 0205979 352.0350  76.3394 13.72542749545632

AllMySatでSL-16 DEBをリアルタイム追跡

Download on the App Store